Weather History for Ft Pierce, FL

Change the Weather History Date:

Tuesday, April 29, 2014

  Actual Average Record
Temperature  
Mean Temperature 80 °F -  
Max Temperature 88 °F 83 °F 90 °F (1939)
Min Temperature 73 °F 62 °F 45 °F (1992)
Cooling Degree Days 16    
Growing Degree Days 30 (Base 50)    
Moisture  
Dew Point 72 °F    
Average Humidity 75    
Maximum Humidity 87    
Minimum Humidity 59    
Precipitation  
Precipitation 0.00 in - - ()
Sea Level Pressure  
Sea Level Pressure 29.95 in    
Wind  
Wind Speed 10 mph (SE)    
Max Wind Speed 29 mph    
Max Gust Speed 36 mph    
Visibility 10 miles    
Events      
Averages and records for this station are not official NWS values.
T = Trace of Precipitation, MM = Missing Value Source: NWS Daily Summary

Daily Weather History Graph

Daily Weather History Graph

Search for Another Location

Airport:

Trip Planner

Search our weather history database for the weather conditions in past years. The results will help you decide how hot, cold, wet, or windy it might be!

Date:

Astronomy

Apr. 29, 2014 Rise Set
Actual Time 6:43 AM EDT 7:54 PM EDT
Civil Twilight 6:19 AM EDT 8:18 PM EDT
Nautical Twilight 5:50 AM EDT 8:47 PM EDT
Astronomical Twilight 5:20 AM EDT 9:17 PM EDT
Moon 7:00 AM EDT (4/29) 8:31 PM EDT (4/29)
Length of Visible Light 13h 59m
Length of Day
13h 10m
New Moon, 0% of the Moon is Illuminated
Apr 29
New Moon
May 6
First Quarter
May 14
Full
May 21
Last Quarter
May 28
New

Hourly Weather History & Observations

Time (EDT) Temp. Heat Index Dew Point Humidity Pressure Visibility Wind Dir Wind Speed Gust Speed Precip Events Conditions
12:53 AM 78.1 °F - 70.0 °F 76% 29.95 in 10.0 mi SSE 6.9 mph - N/A   Clear
1:53 AM 73.0 °F - 69.1 °F 87% 29.94 in 10.0 mi South 3.5 mph - N/A   Clear
2:53 AM 75.0 °F - 70.0 °F 84% 29.91 in 10.0 mi SSE 6.9 mph - N/A   Clear
3:53 AM 75.9 °F - 70.0 °F 82% 29.90 in 10.0 mi SSE 6.9 mph - N/A   Clear
4:53 AM 75.0 °F - 70.0 °F 84% 29.91 in 10.0 mi SSE 5.8 mph - N/A   Clear
5:53 AM 73.9 °F - 70.0 °F 87% 29.91 in 10.0 mi SSE 4.6 mph - N/A   Clear
6:53 AM 75.0 °F - 70.0 °F 84% 29.93 in 10.0 mi SSE 4.6 mph - N/A   Clear
7:53 AM 77.0 °F - 71.1 °F 82% 29.96 in 10.0 mi SSE 3.5 mph - N/A   Clear
8:53 AM 80.6 °F 85.4 °F 73.4 °F 79% 29.97 in 10.0 mi SSE 10.4 mph - N/A   Partly Cloudy
9:53 AM 84.0 °F 88.4 °F 70.0 °F 63% 29.97 in 10.0 mi South 10.4 mph - N/A   Partly Cloudy
10:53 AM 84.2 °F 89.6 °F 71.6 °F 66% 29.97 in 10.0 mi ESE 13.8 mph - N/A   Scattered Clouds
11:53 AM 87.1 °F 93.6 °F 72.0 °F 61% 29.97 in 10.0 mi SE 18.4 mph - N/A   Clear
12:53 PM 87.1 °F 93.6 °F 72.0 °F 61% 29.96 in 10.0 mi SE 21.9 mph 32.2 mph N/A   Clear
1:53 PM 88.0 °F 94.7 °F 72.0 °F 59% 29.95 in 10.0 mi ESE 25.3 mph 34.5 mph N/A   Clear
2:53 PM 86.0 °F 90.7 °F 70.0 °F 59% 29.93 in 10.0 mi SE 28.8 mph 35.7 mph N/A   Partly Cloudy
3:53 PM 84.9 °F 90.7 °F 72.0 °F 65% 29.92 in 10.0 mi SE 25.3 mph 33.4 mph N/A   Clear
4:53 PM 82.4 °F 87.2 °F 71.6 °F 70% 29.92 in 10.0 mi SE 18.4 mph 26.5 mph N/A   Scattered Clouds
5:53 PM 82.4 °F 88.2 °F 73.4 °F 74% 29.92 in 10.0 mi SE 18.4 mph - N/A   Clear
6:53 PM 82.0 °F 87.4 °F 73.0 °F 74% 29.94 in 10.0 mi SE 16.1 mph - N/A   Clear
7:53 PM 81.0 °F 85.8 °F 73.0 °F 77% 29.95 in 10.0 mi SE 15.0 mph 23.0 mph N/A   Clear
8:53 PM 80.1 °F 84.5 °F 73.9 °F 81% 30.00 in 10.0 mi SE 9.2 mph - N/A   Scattered Clouds
9:53 PM 80.1 °F 84.5 °F 73.9 °F 81% 30.01 in 10.0 mi SE 13.8 mph - N/A   Clear
10:53 PM 79.0 °F - 73.9 °F 84% 30.04 in 10.0 mi SE 12.7 mph - N/A   Clear
11:53 PM 80.1 °F 84.2 °F 73.0 °F 79% 30.04 in 10.0 mi SE 10.4 mph - N/A   Clear